Overview Statistics Trail Chart Weather Telemetry Raw packets
 

This is the latest recevied weather packets stored in our database for station/object OE3APM-13. If no packets are shown the sender has not sent any weather packets the latest 10 day(s).

<< 96 97 98 99 100 101 102 >>
Time Temp. Humidity Pressure Rain* Wind** Luminosity Snow
1787900538 20.56° C 63% 1015.8 hPa 0 mm - 294 W/m² -
1787900236 20° C 63% 1015.7 hPa 0 mm - 185 W/m² -
1787899938 20° C 63% 1015.8 hPa 0 mm - 174 W/m² -
1787899632 20° C 64% 1015.8 hPa 0 mm - 130 W/m² -
1787899326 20° C 63% 1015.7 hPa 0 mm - 121 W/m² -
1787899021 20° C 64% 1015.7 hPa 0 mm - 160 W/m² -
1787898716 20° C 64% 1015.7 hPa 0 mm - 167 W/m² -
1787898410 20° C 65% 1015.8 hPa 0 mm - 146 W/m² -
1787898095 20° C 65% 1015.8 hPa 0 mm - 144 W/m² -
1787897792 20° C 65% 1015.6 hPa 0 mm - 120 W/m² -
1787897493 20° C 66% 1015.6 hPa 0 mm - 118 W/m² -
1787897193 20° C 66% 1015.7 hPa 0 mm - 121 W/m² -
1787896894 19.44° C 67% 1015.6 hPa 0 mm - 121 W/m² -
1787896592 19.44° C 67% 1015.5 hPa 0 mm - 109 W/m² -
1787896292 19.44° C 67% 1015.4 hPa 0 mm - 148 W/m² -
1787895991 19.44° C 67% 1015.2 hPa 0 mm - 153 W/m² -
1787895692 19.44° C 68% 1015.1 hPa 0 mm - 155 W/m² -
1787895392 18.89° C 69% 1015.1 hPa 0 mm - 206 W/m² -
1787895088 18.33° C 70% 1015.1 hPa 0 mm - 204 W/m² -
1787894799 18.33° C 71% 1015.2 hPa 0 mm - 165 W/m² -
1787894488 18.33° C 71% 1015.2 hPa 0 mm - 135 W/m² -
1787894190 18.33° C 71% 1015.2 hPa 0 mm - 100 W/m² -
1787893886 18.33° C 71% 1015.2 hPa 0 mm - 60 W/m² -
1787893586 18.33° C 71% 1015.2 hPa 0 mm - 40 W/m² -
1787893287 17.78° C 71% 1015.3 hPa 0 mm - 39 W/m² -

* Rain latest hour (hover to see other rain measurements)
** Current wind speed in m/s (hover to see current wind gust speed)